Home > Weather > Nîmes > Past weeks

Flag for France Past Weather in Nîmes, Languedoc-Roussillon, France — Yesterday and Last 2 Weeks

Now
73 °F

Passing clouds.


Feels Like: 76 °F
Forecast: 63 / 92 °F
Wind: 6 mph from South

Location: Nimes / Garons

Current Time: Jun 30, 2016 at 11:15:25 PM

Latest Report: Jun 30, 2016 at 10:30 PM


Visibility: N/A

Pressure: 30.01 "Hg

Humidity: 69%

Dew Point: 63 °F

Location of NîmesLocation

Past Weather in Nîmes — Graph

°F

Nîmes Temperature Yesterday

Maximum temperature yesterday: 88 °F (at 2:00 PM)
Minimum temperature yesterday: 61 °F (at 6:00 AM)
Average temperature yesterday: 74 °F

High & Low Weather Summary for the Past Weeks

 TemperatureHumidityPressure
High91 °F (Jun 24, 2:30 PM)100% (Jun 16, 4:30 AM)30.18 "Hg (Jun 16, 4:30 AM)
Low54 °F (Jun 17, 6:00 AM)22% (Jun 24, 2:00 PM)29.56 "Hg (Jun 15, 10:00 PM)
Average73 °F56%30.03 "Hg
* Reported Jun 15 10:00 PM — Jun 30 10:00 PM, Nîmes, Weather by CustomWeather, © 2016

Note: Actual official high and low records may vary slightly from our data, if they occured in-between our weather recording intervals... More about our weather records

Advertising

Nîmes Weather History for the Previous 24 Hours

Scroll right to see more
 ConditionsComfort  
Time TempWeatherWind HumidityBarometerVisibility
10:00 PM
Thu, Jun 30
73 °FSunny.6 mph65%29.98 "Hg10 mi
9:30 PM75 °FPassing clouds.6 mph65%29.98 "HgN/A
9:00 PM77 °FPassing clouds.8 mph61%29.98 "HgN/A
8:30 PM81 °FPassing clouds.9 mph54%29.98 "HgN/A
8:00 PM81 °FPassing clouds.9 mph54%29.98 "HgN/A
7:30 PM82 °FPassing clouds.8 mph51%29.95 "HgN/A
7:00 PM81 °FPassing clouds.8 mph51%29.95 "HgN/A
6:30 PM82 °FPassing clouds.9 mph51%29.95 "HgN/A
6:00 PM84 °FPassing clouds.10 mph48%29.95 "HgN/A
5:30 PM82 °FPassing clouds.9 mph51%29.98 "HgN/A
5:00 PM84 °FWarm.12 mph48%29.98 "HgN/A
4:30 PM84 °FPassing clouds.8 mph45%29.98 "HgN/A
4:00 PM86 °FPassing clouds.9 mph49%29.98 "HgN/A
3:30 PM86 °FPassing clouds.8 mph49%29.98 "HgN/A
3:00 PM86 °FPassing clouds.6 mph46%29.98 "HgN/A
2:30 PM86 °FPassing clouds.6 mph46%29.98 "HgN/A
2:00 PM86 °FScattered clouds.9 mph46%29.98 "HgN/A
1:30 PM84 °FPassing clouds.7 mph45%30.01 "HgN/A
1:00 PM84 °FPartly sunny.3 mph48%30.01 "HgN/A
12:30 PM84 °FPassing clouds.3 mph51%30.01 "HgN/A
12:00 PM82 °FPassing clouds.3 mph55%30.01 "HgN/A
11:30 AM81 °FPassing clouds.6 mph58%30.01 "HgN/A
11:00 AM79 °FPassing clouds.5 mph61%30.01 "HgN/A
10:30 AM77 °FSunny.3 mph69%30.01 "Hg10 mi
10:00 AM77 °FPassing clouds.3 mph69%30.01 "HgN/A
9:30 AM75 °FPassing clouds.3 mph69%30.01 "HgN/A
9:00 AM73 °FSunny.2 mph74%30.01 "Hg10 mi
8:30 AM72 °FSunny.2 mph83%29.98 "Hg10 mi
8:00 AM70 °FClear.2 mph83%29.98 "Hg6 mi
7:30 AM70 °FClear.5 mph88%29.98 "Hg4 mi
7:00 AM68 °FFog.2 mph94%29.98 "Hg3 mi
6:30 AM66 °FFog.2 mph94%29.98 "Hg2 mi
6:00 AM66 °FFog.3 mph94%29.98 "Hg2 mi
5:30 AM66 °FFog.2 mph94%29.98 "Hg3 mi
5:00 AM68 °FFog.1 mph94%29.98 "Hg3 mi
4:30 AM66 °FLow clouds.No wind94%29.98 "Hg4 mi
4:00 AM66 °FFog.3 mph100%29.98 "Hg3 mi
3:30 AM66 °FFog.2 mph100%29.98 "Hg2 mi
3:00 AM66 °FFog.2 mph100%29.95 "Hg3 mi
2:30 AM66 °FFog.3 mph100%29.98 "Hg3 mi
2:00 AM68 °FFog.5 mph94%29.98 "Hg2 mi
1:30 AM68 °FFog.5 mph94%29.98 "Hg3 mi
1:00 AM68 °FMostly cloudy.6 mph94%29.98 "Hg4 mi
12:30 AM68 °FPassing clouds.5 mph94%29.98 "Hg4 mi
12:00 AM68 °FPassing clouds.5 mph94%29.98 "Hg4 mi
11:30 PM
Wed, Jun 29
70 °FPassing clouds.5 mph88%29.98 "Hg5 mi
11:00 PM68 °FMild.5 mph94%29.98 "Hg6 mi
Weather by CustomWeather, © 2016

See weather overviewHow to use our weather pages